DECAYED

FENGYUN 1C DEB, 30578 (Decayed)

Orbit data source: Space-Track

FENGYUN 1C DEB, 30578 was space debris in SSO originally from a launch on Mon, 10 May 1999 UTC launched from the Taiyaun Space Center, China (TSC). Fengyun 1C debris stems from the Chinese weather satellite Fengyun-1C, which was intentionally destroyed by a Chinese anti-satellite missile in 2007. This event dramatically increased the amount of space debris, with thousands of trackable fragments posing hazards to satellites and human spaceflight. The Fengyun 1C debris cloud has become a focal point in discussions about space sustainability and the need for international regulations to prevent the creation of new debris.

Loading next visibility...
Identifier
30578, 1999-025ALU
Orbit
Decayed
Country
Flag of CNCN / PRC
Related business
Manufacturer
Unknown
Mission
Decayed spacecraft
Bus & Motor
Unknown
Mass
Unknown
Launch date (UTC)
1999-05-10 (27 years ago)
Launch vehicle
Unknown
Launch site
Taiyaun Space Center, China (TSC)
Object type
Payload
Rocket body
Debris
Shape & HBR
Unknown shape, 0.1 m
Radar Cross Section
Medium (>0.1 m² and <1 m²)

Expand to show TLE details & history
Last TLE update: 7 months ago

TLE from 7 months ago
0 FENGYUN 1C DEB
1 30578U 99025ALU 25316.18850422  .02968295  00000-0  27781-1 0  9992
2 30578  98.9724 173.2714 0010438  44.1838  82.5890 15.63711025972015
Epoch: 2025-11-12T04:31Z
TLE epoch observation values (Epoch: 2025-11-12T04:31:26.764Z)
Latitude
52.29231°
Longitude
-114.43684°
Altitude
384.557 km
Speed
7.685 km/s
True Right ascension
00h 19m 57s
True Declination
52° 06' 60"
Sunlit
Object was in full shadow at epoch
Visualization orbit readout
Latitude
Unknown
Longitude
Unknown
Altitude
Unknown
Speed
Unknown
Apparent Right ascension
Unknown
Apparent Declination
Unknown
Sunlit
N/A
Visualization observer readout
Local Sidereal Time
02:51:09
Azimuth
Unknown
Elevation
Unknown
Doppler factor
Unknown
Orbital elements
Apogee altitude
380.979 km
Perigee altitude
366.884 km
Semi-major axis
6,752.069 km
Eccentricity
0.00104
Inclination
98.9724°
RAAN
173.2714°
Arg. of periapsis
44.1838°
True anomaly
82.70763°
Mean anomaly
82.589°
Eccentric anomaly
82.64831°
Mean motion
3.9119 °/min
Orbital period
92.03 mins
BSTAR
0.027781
Loading maneuver chart data...
Computing Atmospheric mass density...

Documentation

Showing up to 5 results
|